C/2020 S8 ( Lemmon )

Japanese version
Home page
Updated on April 19, 2021

---------------------------------------------------------------------

* Profile

Discovery Date September 18, 2020
Magnitude 20.1 mag
Discoverer Mount Lemmon Survey

* Pictures

* Orbital Elements

Epoch 2021 Apr. 16.0 TT = JDT 2459320.5
T 2021 Apr. 10.92733 TT                                 Rudenko
q   2.3638753            (2000.0)            P               Q
z  +0.0036313      Peri.  160.33286     -0.81633832     -0.42922894
 +/-0.0000019      Node    24.05207     -0.56862042     +0.47990364
e   0.9914160      Incl.  108.51832     +0.10130431     -0.76515032
From 194 observations 2020 July 29-2021 Mar. 25, mean residual 0".5.

* Magnitudes Graph

        m1 = 10.0 + 5 log d + 15.0 log r

---------------------------------------------------------------------

The orbital elements are published on M.P.E.C. 2021-F115.
The magnitudes graphs are made with Comet for Windows.

---------------------------------------------------------------------

Copyright(C) Seiichi Yoshida (comet@aerith.net). All rights reserved.